Weather History for Newark Heath, OH

Change the Weather History Date:

Tuesday, November 13, 2012

  Actual Average Record
Temperature  
Mean Temperature 34 °F -  
Max Temperature 39 °F 50 °F 73 °F (1955)
Min Temperature 28 °F 31 °F 17 °F (1950)
Degree Days  
Heating Degree Days 32    
Moisture  
Dew Point 25 °F    
Average Humidity 69    
Maximum Humidity 85    
Minimum Humidity 50    
Precipitation  
Precipitation 0.00 in - - ()
Sea Level Pressure  
Sea Level Pressure 30.47 in    
Wind  
Wind Speed 3 mph (West)    
Max Wind Speed 8 mph    
Max Gust Speed -    
Visibility 10 miles    
Events      
Averages and records for this station are not official NWS values.
T = Trace of Precipitation, MM = Missing Value Source: NWS Daily Summary

Daily Weather History Graph

Daily Weather History Graph

Search for Another Location

Airport:

Trip Planner

Search our weather history database for the weather conditions in past years. The results will help you decide how hot, cold, wet, or windy it might be!

Date:

Astronomy

Nov. 13, 2012 Rise Set
Actual Time 7:13 AM EST 5:14 PM EST
Civil Twilight 6:44 AM EST 5:43 PM EST
Nautical Twilight 6:11 AM EST 6:16 PM EST
Astronomical Twilight 5:39 AM EST 6:48 PM EST
Moon 6:49 AM EST (11/13) 5:06 PM EST (11/13)
Length of Visible Light 10h 59m
Length of Day
10h 01m
Waning Crescent, 0% of the Moon is Illuminated
Nov 13
Waning Crescent
Nov 13
New
Nov 20
First Quarter
Nov 28
Full
Dec 6
Last Quarter

Hourly Weather History & Observations

Time (EST) Temp. Windchill Dew Point Humidity Pressure Visibility Wind Dir Wind Speed Gust Speed Precip Events Conditions
12:54 AM 32.0 °F 28.7 °F 27.0 °F 82% 30.40 in 10.0 mi SW 3.5 mph - N/A   Clear
1:54 AM 30.9 °F 27.5 °F 27.0 °F 85% 30.40 in 10.0 mi SW 3.5 mph - N/A   Clear
2:54 AM 30.0 °F - 26.1 °F 85% 30.41 in 10.0 mi Calm Calm - N/A   Clear
3:54 AM 30.9 °F - 26.1 °F 82% 30.41 in 10.0 mi Calm Calm - N/A   Overcast
4:54 AM 30.9 °F 27.5 °F 25.0 °F 79% 30.41 in 10.0 mi SW 3.5 mph - N/A   Clear
5:54 AM 30.0 °F 25.2 °F 25.0 °F 82% 30.43 in 10.0 mi SSW 4.6 mph - N/A   Clear
7:54 AM 28.0 °F - 24.1 °F 85% 30.47 in 10.0 mi Calm Calm - N/A   Clear
8:54 AM 33.1 °F - 27.0 °F 78% 30.48 in 10.0 mi Calm Calm - N/A   Clear
9:54 AM 37.0 °F 32.4 °F 26.1 °F 65% 30.49 in 10.0 mi West 5.8 mph - N/A   Clear
10:54 AM 37.9 °F 32.1 °F 23.0 °F 55% 30.50 in 10.0 mi WNW 8.1 mph - N/A   Scattered Clouds
11:54 AM 39.0 °F 34.0 °F 24.1 °F 55% 30.49 in 10.0 mi WNW 6.9 mph - N/A   Overcast
12:54 PM 39.0 °F 34.8 °F 23.0 °F 53% 30.47 in 10.0 mi WNW 5.8 mph - N/A   Overcast
1:54 PM 39.0 °F - 21.9 °F 50% 30.46 in 10.0 mi Calm Calm - N/A   Overcast
2:54 PM 39.9 °F 37.8 °F 23.0 °F 51% 30.47 in 10.0 mi NNW 3.5 mph - N/A   Overcast
3:54 PM 39.9 °F - 23.0 °F 51% 30.48 in 10.0 mi Calm Calm - N/A   Overcast
4:54 PM 39.0 °F 34.8 °F 24.1 °F 55% 30.48 in 10.0 mi NNW 5.8 mph - N/A   Overcast
5:54 PM 37.9 °F - 24.1 °F 57% 30.49 in 10.0 mi Calm Calm - N/A   Overcast
6:54 PM 37.9 °F 34.4 °F 24.1 °F 57% 30.50 in 10.0 mi NE 4.6 mph - N/A   Overcast
7:54 PM 37.0 °F - 25.0 °F 62% 30.51 in 10.0 mi Calm Calm - N/A   Overcast
8:54 PM 36.0 °F - 25.0 °F 64% 30.53 in 10.0 mi Calm Calm - N/A   Mostly Cloudy
9:54 PM 32.0 °F - 26.1 °F 79% 30.54 in 10.0 mi Calm Calm - N/A   Clear
10:54 PM 28.9 °F - 25.0 °F 85% 30.54 in 10.0 mi Calm Calm - N/A   Clear
11:54 PM 28.0 °F - 24.1 °F 85% 30.54 in 10.0 mi Calm Calm - N/A   Clear